Regional Weather Roundup
Issued by NWS

Home | Current Version | Previous Version | Graphics & Text | Print | Product List | Glossary Off
Versions: 1 2 3 4 5 6 7 8 9 10 11 12 13 14 15 16 17 18 19 20 21 22 23 24 25 26 27 28 29 30 31 32 33 34 35 36 37 38 39 40 41 42 43 44 45 46 47 48 49 50

751
ASUS43 KTOP 250608
RWRKS

WEATHER ROUNDUP FOR KANSAS
NATIONAL WEATHER SERVICE GOODLAND KS
100 AM CDT SAT MAR 25 2017

NOTE:  "FAIR" INDICATES FEW OR NO CLOUDS BELOW 12,000 FEET WITH NO
SIGNIFICANT WEATHER AND/OR OBSTRUCTIONS TO VISIBILITY.

KSZ001>006-013>018-027>032-041>047-250700-
NORTHWEST KANSAS

CITY           SKY/WX    TMP DP  RH WIND       PRES   REMARKS
GOODLAND       PTCLDY    36  34  92 NW9       30.07S
6HR MIN TEMP:  36; 6HR MAX TEMP:  40; 6HR PCP: TRACE;

HAYS             N/A     42  38  85 N16       29.99S
HILL CITY      CLOUDY    43  40  89 N15       30.03S
6HR MIN TEMP:  42; 6HR MAX TEMP:  43;

RUSSELL        LGT RAIN  40  39  97 N17       29.97R FOG     WCI  31
6HR MIN TEMP:  40; 6HR MAX TEMP:  47; 6HR PCP: TRACE;

$$

KSZ061>065-074>080-084>089-250700-
SOUTHWEST KANSAS

CITY           SKY/WX    TMP DP  RH WIND       PRES   REMARKS
DODGE CITY     CLOUDY    41  40  96 N21G28    30.00S
6HR MIN TEMP:  40; 6HR MAX TEMP:  46;

ELKHART          N/A     38  26  62 NW18        N/A  WCI  28
GARDEN CITY    CLOUDY    41  39  93 N18       30.02F
6HR MIN TEMP:  41; 6HR MAX TEMP:  43;

GREAT BEND     LGT RAIN  41  39  93 N21       29.97R
LIBERAL        CLOUDY    43  36  75 N22       30.04R
PRATT          CLOUDY    39  37  91 N25       29.94R WCI  28
6HR MIN TEMP:  39; 6HR MAX TEMP:  58;

$$

KSZ066>073-081>083-090>101-250700-
SOUTHEAST KANSAS

CITY           SKY/WX    TMP DP  RH WIND       PRES   REMARKS
CHANUTE        CLOUDY    53  51  93 N10       29.78F
6HR MIN TEMP:  53; 6HR MAX TEMP:  64; 6HR PCP:  0.10;

COFFEYVILLE    CLOUDY    54  50  86 N9        29.79F
6HR MIN TEMP:  54; 6HR MAX TEMP:  67; 6HR PCP:  0.01;

HUTCHINSON     LGT RAIN  44  42  93 N18G28    29.91R
6HR MIN TEMP:  44; 6HR MAX TEMP:  58; 6HR PCP:  0.15;

MEDICINE LODGE   N/A     44  40  85 N16       29.90R
NEWTON         LGT RAIN  43  43 100 N21G28    29.87
PARSONS        CLOUDY    54  50  86 VRB6      29.78F
6HR MIN TEMP:  53; 6HR MAX TEMP:  66; 6HR PCP:  0.05;

WICHITA INTL   CLOUDY    47  47 100 N18       29.84F
6HR MIN TEMP:  47; 6HR MAX TEMP:  62; 6HR PCP:  0.15;

WICHITA JABRA  CLOUDY    46  45  96 N20G29    29.84F
6HR MIN TEMP:  46; 6HR MAX TEMP:  60; 6HR PCP:  0.02;

WICHITA MCCONL CLOUDY    46  45  93 N23G33    29.81F
WINFIELD       CLOUDY    53  47  79 N7        29.82F
6HR MIN TEMP:  53; 6HR MAX TEMP:  68;

$$

KSZ007>012-019>026-033>040-048>060-102>105-250700-
NORTHEAST KANSAS

CITY           SKY/WX    TMP DP  RH WIND       PRES   REMARKS
CONCORDIA      CLOUDY    42  40  92 N14       29.92F
6HR MIN TEMP:  42; 6HR MAX TEMP:  46;

EMPORIA        LGT RAIN  49  49 100 NW9       29.82S
6HR MIN TEMP:  48; 6HR MAX TEMP:  66; 6HR PCP:  0.44;

LAWRENCE       CLOUDY    53  52  96 N13       29.79S
6HR MIN TEMP:  53; 6HR MAX TEMP:  65; 6HR PCP:  0.01;

MANHATTAN      CLOUDY    45  42  89 N12       29.87R
6HR MIN TEMP:  45; 6HR MAX TEMP:  62; 6HR PCP:  0.79;

MARYSVILLE     CLOUDY    43  39  87 N14G21    29.88F
OLATHE IND     CLOUDY    53  52  96 NW6       29.79R
6HR MIN TEMP:  53; 6HR MAX TEMP:  62;

OLATHE EXE     CLOUDY    57  57 100 E8        29.77F
6HR MIN TEMP:  55; 6HR MAX TEMP:  59;

SALINA         CLOUDY    45  41  86 N18       29.92S
6HR MIN TEMP:  45; 6HR MAX TEMP:  56; 6HR PCP:  0.06;

TOPEKA BILLARD CLOUDY    50  49  96 N10G18    29.82R
6HR MIN TEMP:  50; 6HR MAX TEMP:  65; 6HR PCP:  0.14;

TOPEKA FORBES  CLOUDY    52  49  89 N14       29.80F
6HR MIN TEMP:  52; 6HR MAX TEMP:  67; 6HR PCP:  0.04;

$$




USA.gov is the U.S. government's official web portal to all federal, state and local government web resources and services.